Weather History for KRKD - October, 2011

Change the Weather History Date:

Thursday, October 27, 2011

  Actual Average Record
Temperature  
Mean Temperature 42 °F -  
Max Temperature 46 °F 49 °F 62 °F (2010)
Min Temperature 37 °F 36 °F 26 °F (1998)
Degree Days  
Heating Degree Days 24    
Moisture  
Dew Point 27 °F    
Average Humidity 58    
Maximum Humidity 75    
Minimum Humidity 49    
Precipitation  
Precipitation 0.03 in - - ()
Sea Level Pressure  
Sea Level Pressure 29.77 in    
Wind  
Wind Speed 5 mph (North)    
Max Wind Speed 8 mph    
Max Gust Speed -    
Visibility 10 miles    
Events      
Averages and records for this station are not official NWS values.
T = Trace of Precipitation, MM = Missing Value Source: NWS Daily Summary

Daily Weather History Graph

Daily Weather History Graph

Search for Another Location

Airport or City:

Trip Planner

Search our weather history database for the weather conditions in past years. The results will help you decide how hot, cold, wet, or windy it might be!

Date:

Astronomy

Oct. 27, 2011 Rise Set
Actual Time 7:05 AM EDT 5:33 PM EDT
Civil Twilight 6:36 AM EDT 6:03 PM EDT
Nautical Twilight 6:02 AM EDT 6:37 PM EDT
Astronomical Twilight 5:28 AM EDT 7:10 PM EDT
Moon 8:09 AM EDT (10/27) 5:55 PM EDT (10/27)
Length of Visible Light 11h 27m
Length of Day
10h 27m
New Moon, 1% of the Moon is Illuminated
Oct 27
New Moon
Nov 2
First Quarter
Nov 10
Full
Nov 18
Last Quarter
Nov 25
New

Hourly Weather History & Observations

Time (EDT) Temp. Windchill Dew Point Humidity Pressure Visibility Wind Dir Wind Speed Gust Speed Precip Events Conditions
12:16 AM 46.4 °F 44.3 °F 28.4 °F 50% 29.77 in 10.0 mi North 4.6 mph - N/A   Overcast
12:35 AM 46.4 °F 44.3 °F 28.4 °F 50% 29.77 in 10.0 mi North 4.6 mph - N/A   Overcast
1:15 AM 44.6 °F 40.2 °F 28.4 °F 53% 29.76 in 10.0 mi NNE 8.1 mph - N/A   Overcast
1:35 AM 44.6 °F 40.2 °F 30.2 °F 57% 29.77 in 10.0 mi NNE 8.1 mph - N/A   Overcast
2:15 AM 42.8 °F 41.1 °F 28.4 °F 57% 29.77 in 10.0 mi NNE 3.5 mph - N/A   Overcast
2:35 AM 42.8 °F 38.6 °F 28.4 °F 57% 29.77 in 10.0 mi North 6.9 mph - N/A   Overcast
2:55 AM 42.8 °F 38.6 °F 26.6 °F 53% 29.78 in 10.0 mi North 6.9 mph - N/A   Overcast
3:15 AM 42.8 °F 39.3 °F 26.6 °F 53% 29.77 in 10.0 mi North 5.8 mph - N/A   Overcast
3:35 AM 42.8 °F 40.1 °F 26.6 °F 53% 29.78 in 10.0 mi North 4.6 mph - N/A   Overcast
4:15 AM 41.0 °F 37.1 °F 26.6 °F 57% 29.80 in 10.0 mi North 5.8 mph - N/A   Overcast
4:35 AM 39.2 °F 33.6 °F 28.4 °F 65% 29.80 in 10.0 mi North 8.1 mph - N/A   Overcast
4:55 AM 39.2 °F - 28.4 °F 65% 29.80 in 10.0 mi Calm Calm - N/A   Overcast
5:15 AM 39.2 °F 33.6 °F 28.4 °F 65% 29.80 in 10.0 mi NNE 8.1 mph - N/A   Overcast
5:35 AM 39.2 °F 35.0 °F 28.4 °F 65% 29.80 in 10.0 mi North 5.8 mph - N/A   Overcast
5:55 AM 39.2 °F 37.0 °F 28.4 °F 65% 29.81 in 10.0 mi North 3.5 mph - N/A   Overcast
6:35 AM 37.4 °F 32.8 °F 28.4 °F 70% 29.81 in 10.0 mi North 5.8 mph - 0.02 in   Overcast
6:55 AM 37.4 °F - 30.2 °F 75% 29.80 in 10.0 mi Calm Calm - 0.03 in   Overcast
7:15 AM 37.4 °F 34.9 °F 30.2 °F 75% 29.80 in 10.0 mi North 3.5 mph - N/A   Overcast
7:35 AM 37.4 °F - 30.2 °F 75% 29.81 in 10.0 mi Calm Calm - N/A   Overcast
7:55 AM 37.4 °F 33.8 °F 30.2 °F 75% 29.80 in 10.0 mi North 4.6 mph - N/A   Overcast
8:15 AM 39.2 °F 35.0 °F 30.2 °F 70% 29.81 in 10.0 mi NNE 5.8 mph - N/A   Overcast
8:35 AM 37.4 °F 32.8 °F 28.4 °F 70% 29.80 in 10.0 mi NNE 5.8 mph - N/A   Overcast
8:55 AM 39.2 °F 37.0 °F 28.4 °F 65% 29.80 in 10.0 mi NNE 3.5 mph - N/A   Overcast
9:15 AM 39.2 °F 37.0 °F 28.4 °F 65% 29.81 in 10.0 mi North 3.5 mph - N/A   Overcast
9:35 AM 39.2 °F 37.0 °F 26.6 °F 61% 29.81 in 10.0 mi NNW 3.5 mph - N/A   Overcast
9:55 AM 39.2 °F - 28.4 °F 65% 29.82 in 10.0 mi Calm Calm - N/A   Overcast
10:15 AM 39.2 °F 34.2 °F 28.4 °F 65% 29.81 in 10.0 mi North 6.9 mph - N/A   Overcast
10:35 AM 39.2 °F - 26.6 °F 61% 29.80 in 10.0 mi Calm Calm - N/A   Mostly Cloudy
10:55 AM 41.0 °F 37.1 °F 26.6 °F 57% 29.79 in 10.0 mi NNE 5.8 mph - N/A   Mostly Cloudy
11:15 AM 42.8 °F 38.6 °F 26.6 °F 53% 29.80 in 10.0 mi NE 6.9 mph - N/A   Mostly Cloudy
11:35 AM 42.8 °F 38.6 °F 26.6 °F 53% 29.79 in 10.0 mi NNE 6.9 mph - N/A   Overcast
11:55 AM 42.8 °F 39.3 °F 26.6 °F 53% 29.78 in 10.0 mi NE 5.8 mph - N/A   Overcast
12:15 PM 42.8 °F 41.1 °F 26.6 °F 53% 29.77 in 10.0 mi NNE 3.5 mph - N/A   Overcast
12:35 PM 42.8 °F 39.3 °F 26.6 °F 53% 29.75 in 10.0 mi North 5.8 mph - N/A   Overcast
1:15 PM 42.8 °F 39.3 °F 26.6 °F 53% 29.73 in 10.0 mi North 5.8 mph - N/A   Overcast
1:35 PM 42.8 °F 39.3 °F 26.6 °F 53% 29.73 in 10.0 mi North 5.8 mph - N/A   Overcast
1:55 PM 42.8 °F 41.1 °F 26.6 °F 53% 29.73 in 10.0 mi NNE 3.5 mph - N/A   Overcast
2:15 PM 42.8 °F 38.6 °F 26.6 °F 53% 29.73 in 10.0 mi North 6.9 mph - N/A   Overcast
2:35 PM 42.8 °F 40.1 °F 26.6 °F 53% 29.72 in 10.0 mi North 4.6 mph - N/A   Overcast
3:15 PM 41.0 °F 36.4 °F 24.8 °F 53% 29.72 in 10.0 mi North 6.9 mph - N/A   Overcast
3:35 PM 41.0 °F 35.8 °F 24.8 °F 53% 29.72 in 10.0 mi North 8.1 mph - N/A   Overcast
3:55 PM 41.0 °F 39.0 °F 23.0 °F 49% 29.72 in 10.0 mi North 3.5 mph - N/A   Overcast
4:15 PM 41.0 °F 38.0 °F 24.8 °F 53% 29.73 in 10.0 mi North 4.6 mph - N/A   Overcast
4:35 PM 41.0 °F 37.1 °F 23.0 °F 49% 29.73 in 10.0 mi NNW 5.8 mph - N/A   Overcast
4:55 PM 41.0 °F - 24.8 °F 53% 29.73 in 10.0 mi Calm Calm - N/A   Overcast
5:15 PM 41.0 °F 39.0 °F 24.8 °F 53% 29.73 in 10.0 mi North 3.5 mph - N/A   Overcast
5:35 PM 41.0 °F 39.0 °F 24.8 °F 53% 29.72 in 10.0 mi North 3.5 mph - N/A   Overcast
5:55 PM 41.0 °F 38.0 °F 24.8 °F 53% 29.72 in 10.0 mi NNW 4.6 mph - N/A   Overcast
6:15 PM 41.0 °F 37.1 °F 24.8 °F 53% 29.73 in 10.0 mi NNW 5.8 mph - N/A   Overcast
6:35 PM 39.2 °F 37.0 °F 24.8 °F 56% 29.72 in 10.0 mi North 3.5 mph - N/A   Overcast
6:55 PM 39.2 °F 35.9 °F 24.8 °F 56% 29.74 in 10.0 mi NW 4.6 mph - N/A   Overcast
7:15 PM 39.2 °F - 24.8 °F 56% 29.74 in 10.0 mi Calm Calm - N/A   Overcast
7:35 PM 39.2 °F 37.0 °F 24.8 °F 56% 29.73 in 10.0 mi NNW 3.5 mph - N/A   Overcast
7:55 PM 39.2 °F 37.0 °F 24.8 °F 56% 29.74 in 10.0 mi NNW 3.5 mph - N/A   Overcast
8:15 PM 39.2 °F 34.2 °F 24.8 °F 56% 29.73 in 10.0 mi North 6.9 mph - N/A   Overcast
8:35 PM 39.2 °F 34.2 °F 24.8 °F 56% 29.75 in 10.0 mi NNE 6.9 mph - N/A   Overcast
8:55 PM 39.2 °F 34.2 °F 24.8 °F 56% 29.76 in 10.0 mi North 6.9 mph - N/A   Overcast
9:16 PM 39.2 °F 33.6 °F 24.8 °F 56% 29.76 in 10.0 mi NNE 8.1 mph - N/A   Overcast
9:35 PM 39.2 °F 35.0 °F 26.6 °F 61% 29.77 in 10.0 mi North 5.8 mph - N/A   Overcast
9:55 PM 39.2 °F 33.6 °F 26.6 °F 61% 29.79 in 10.0 mi NNW 8.1 mph - N/A   Overcast
10:15 PM 39.2 °F 34.2 °F 26.6 °F 61% 29.79 in 10.0 mi North 6.9 mph - N/A   Overcast
10:35 PM - - - N/A% 29.79 in 10.0 mi NNW 6.9 mph - N/A   Overcast
10:55 PM 35.6 °F 31.7 °F 28.4 °F 75% 29.80 in 10.0 mi NNW 4.6 mph - N/A   Overcast
11:35 PM 35.6 °F 30.7 °F 28.4 °F 75% 29.82 in 10.0 mi NW 5.8 mph - 0.01 in   Overcast
11:55 PM 35.6 °F 29.9 °F 30.2 °F 81% 29.82 in 10.0 mi NW 6.9 mph - 0.02 in   Overcast